Regional Weather Roundup
Issued by NWS Upton, NY

Home | Current Version | Previous Version | Text Only | Print | Product List | Glossary On
Versions: 1 2 3 4 5 6 7 8 9 10 11 12 13 14 15 16 17 18 19 20 21 22 23 24 25 26 27 28 29 30 31 32 33 34 35 36 37 38 39 40 41 42 43 44 45 46 47 48 49 50
000
ASUS41 KOKX 221705
RWROKX

REGIONAL WEATHER ROUNDUP
NATIONAL WEATHER SERVICE NEW YORK NY
100 PM EDT TUE JUL 22 2014

NOTE: "FAIR" INDICATES FEW OR NO CLOUDS BELOW 12,000 FEET WITH NO
SIGNIFICANT WEATHER AND/OR OBSTRUCTIONS TO VISIBILITY.

NYZ071-072-176-178-NJZ106-104-221800-
NEW YORK CITY METRO AREA


CITY           SKY/WX    TMP DP  RH WIND       PRES   REMARKS
CENTRAL PARK   PTSUNNY   84  65  52 VRB5      30.15F
LAGUARDIA APRT MOSUNNY   85  65  51 SW6       30.11F
KENNEDY INTL   MOSUNNY   83  67  58 S12       30.14F
NEWARK/LIBERTY MOSUNNY   86  67  52 SW8G23    30.12F
BRNX BOT. GARD   N/A     86  66  51 W3        30.15S
TETERBORO      MOSUNNY   87  65  47 SW10      30.11F
$$

NYZ177-179-078>081-221800-
LONG ISLAND NEW YORK

CITY           SKY/WX    TMP DP  RH WIND       PRES   REMARKS
FARMINGDALE    SUNNY     83  67  58 SW12      30.13F
ISLIP          MOSUNNY   85  66  53 S13G20    30.12F
SHIRLEY        SUNNY     84  66  54 SW10      30.14F
WESTHAMPTON    SUNNY     81  67  62 SW10      30.15F
MONTAUK POINT    N/A     81  68  64 VRB3      30.15S
$$

NYZ052-065-067-221800-
HUDSON VALLEY

CITY           SKY/WX    TMP DP  RH WIND       PRES   REMARKS
WHITE PLAINS   MOSUNNY   84  67  56 W7        30.13F
NEWBURGH       MOSUNNY   82  72  69 SW12      30.14F
MONTGOMERY     MOSUNNY   84  69  60 S5        30.12F
POUGHKEEPSIE   SUNNY     85  68  56 W7        30.11F
ALBANY         MOSUNNY   85  69  58 CALM      30.10F
$$

NJZ001-105-106-008-010-013-015-019>022-104-221800-
NEW JERSEY

CITY           SKY/WX    TMP DP  RH WIND       PRES   REMARKS
NEWARK/LIBERTY MOSUNNY   86  67  52 SW8G23    30.12F
TETERBORO      MOSUNNY   87  65  47 SW10      30.11F
CALDWELL       PTSUNNY   83  66  56 VRB6      30.14F
MORRISTOWN     PTSUNNY   86  68  54 W8G17     30.13F
SOMERVILLE     PTSUNNY   84  68  58 VRB6      30.12F
LINDEN         FAIR      86  67  53 W10       30.15S
SUSSEX         MOSUNNY   85  68  56 SW9       30.13F
ANDOVER          N/A     81  67  62 SW6       30.15F
TRENTON          N/A     82  67  60 S8        30.14F
MILLVILLE      MOSUNNY   82  67  60 S8        30.16F
ATLANTIC CITY  SUNNY     82  66  58 SE7       30.16F
WRIGHTSTOWN    MOSUNNY   85  68  56 W8        30.12F
TOMS RIVER     PTSUNNY   86  64  48 W7        30.15F
BELMAR         PTSUNNY   84  64  51 W9        30.14F
$$

PAZ047>061-062-071-221800-
EASTERN PENNSYLVANIA

CITY           SKY/WX    TMP DP  RH WIND       PRES   REMARKS
PHILADELPHIA   MOSUNNY   84  63  49 SW8       30.15F
ALLENTOWN      PTSUNNY   81  70  69 W9        30.15F
SCRANTON       MOSUNNY   83  67  58 SW10      30.16S
$$

CTZ002-004>006-009-010-012-RIZ004-006-007-MAZ004-011-015-221800-
SOUTHERN NEW ENGLAND
 IN CT

CITY           SKY/WX    TMP DP  RH WIND       PRES   REMARKS
BRADLEY INTL   PTSUNNY   87  65  47 S8        30.09F
HARTFORD       SUNNY     87  62  43 SW8       30.09F
DANBURY        PTSUNNY   83  66  56 W8        30.14F
WTRBRY/OXFORD  NOT AVBL
BRIDGEPORT     SUNNY     84  67  56 SW12      30.12F
MERIDEN        MOSUNNY   86  65  49 W7        30.11F
NEW HAVEN      SUNNY     82  68  62 SW7       30.12F
CHESTER        FAIR      82  66  57 SW8       30.14F
GROTON         SUNNY     78  67  68 SW8       30.12F
WILLIMANTIC    SUNNY     86  64  47 NW6       30.12F

 IN RI

CITY           SKY/WX    TMP DP  RH WIND       PRES   REMARKS
PROVIDENCE     MOSUNNY   82  69  64 SE9       30.12S
BLOCK ISLAND   SUNNY     77  64  65 SW13      30.15S
WESTERLY       SUNNY     80  65  59 SW8       30.14S

 IN MA

CITY           SKY/WX    TMP DP  RH WIND       PRES   REMARKS
BOSTON         MOSUNNY   78  66  66 E12       30.10F
WORCESTER      MOSUNNY   82  61  48 W9        30.14F
WESTFIELD      SUNNY     86  68  54 VRB5      30.10F
PROVINCETOWN   SUNNY     81  66  61 S7        30.12F
NANTUCKET      SUNNY     72  65  78 SW7       30.15F
$$

ANZ330-335-338-340-345-350-353-355-221800-
COASTAL MARINE OBSERVATIONS


STATION/POSITION TIME  SKY/WX   TEMP    WIND        PRES    VSBY  WAVE
                                AIR SEA DIR/SP/G                  HT/PER
                 (UTC)          (F)     (DEG/KT/KT) (MB)    (MI)  (FT/S)
NY HARB ENTRANCE NOT AVBL
4S FIRE IS       NOT AVBL
23SW MTP         1700            72 71              1020.3          2/ 7
HUDSON CANYON    1700            72 74  230/  6/  8 1021.5          2/ 8
EXECUTION ROCKS  1700            80 73  200/  6/  8   N/A
WESTERN LI SOUND 1700            79     210/  6/  8   N/A           0
CENTRAL LI SOUND 1600            74 73  260/ 10/ 12   N/A           1/ 2
EASTERN LI SOUND 1600            71 67  260/  6/  8   N/A
ROBBINS REEF     1600            80     160/  2/  4   N/A
$$


>>>>>>>>>>>>>>>>>>>>>>>>>>>> KEY <<<<<<<<<<<<<<<<<<<<<<<<<<<
>                                                          <
>     SKY/WX - SKY CONDITION/PRESENT WEATHER               <
>     TMP    - TEMPERATURE IN FAHRENHEIT                   <
>     DP     - DEWPOINT IN FAHRENHEIT                      <
>     RH     - RELATIVE HUMIDITY IN PERCENT                <
>     WIND   - DIRECTION AND SPEED IN MPH                  <
>     PRES   - MEAN SEA LEVEL PRESSURE IN INCHES OF HG     <
>     WCI    - WIND CHILL INDEX                            <
>     VSB    - VISIBILITY IN MILES                         <
>     HX     - HEAT INDEX                                  <
>     TC     - TEMPERATURE IN CELSIUS                      <
>     VRB    - VARIABLE WIND DIRECTION                     <
>                                                          <
>>>>>>>>>>>>>>>>>>>>>>>>>>>> KEY <<<<<<<<<<<<<<<<<<<<<<<<<<<





USA.gov is the U.S. government's official web portal to all federal, state and local government web resources and services.